Time,TemperatureF,DewpointF,PressureIn,WindDirection,WindDirectionDegrees,WindSpeedMPH,WindSpeedGustMPH,Humidity,HourlyPrecipIn,Conditions,Clouds,dailyrainin,SoftwareType,DateUTC
2013-01-01 00:00:00,17.2,17.2,30.25,NNE,20,0.0,2.0,100,0.00,,,0.00,VWS V14.01,2013-01-01 06:00:00,
2013-01-01 00:03:00,17.5,17.5,30.25,NNE,20,0.0,2.0,100,0.00,,,0.00,VWS V14.01,2013-01-01 06:03:00,
2013-01-01 00:08:00,17.5,17.5,30.25,NNE,20,0.0,2.0,100,0.00,,,0.00,VWS V14.01,2013-01-01 06:08:00,
2013-01-01 00:13:00,17.5,17.5,30.25,NNE,20,0.0,2.0,100,0.00,,,0.00,VWS V14.01,2013-01-01 06:13:00,
2013-01-01 00:15:00,17.2,17.2,30.25,NNE,20,0.0,2.0,100,0.00,,,0.00,VWS V14.01,2013-01-01 06:15:00,
2013-01-01 00:18:00,17.5,17.5,30.24,NNE,20,0.0,0.0,100,0.00,,,0.00,VWS V14.01,2013-01-01 06:18:00,
2013-01-01 00:23:00,17.3,17.3,30.24,NNE,20,0.0,0.0,100,0.00,,,0.00,VWS V14.01,2013-01-01 06:23:00,
2013-01-01 00:28:00,17.3,17.3,30.24,NNE,20,0.0,0.0,100,0.00,,,0.00,VWS V14.01,2013-01-01 06:28:00,
2013-01-01 00:30:00,17.0,17.0,30.25,NNE,20,0.0,2.0,100,0.00,,,0.00,VWS V14.01,2013-01-01 06:30:00,
2013-01-01 00:33:00,17.3,17.3,30.25,NNE,20,0.0,0.0,100,0.00,,,0.00,VWS V14.01,2013-01-01 06:33:00,
2013-01-01 00:38:00,17.3,17.3,30.25,NNE,20,0.0,0.0,100,0.00,,,0.00,VWS V14.01,2013-01-01 06:38:00,
2013-01-01 00:43:00,17.3,17.3,30.25,NNE,20,0.0,2.0,100,0.00,,,0.00,VWS V14.01,2013-01-01 06:43:00,
2013-01-01 00:45:00,17.0,17.0,30.25,NNE,20,0.0,2.0,100,0.00,,,0.00,VWS V14.01,2013-01-01 06:45:00,
2013-01-01 00:48:00,17.3,17.3,30.25,NNE,20,0.0,0.0,100,0.00,,,0.00,VWS V14.01,2013-01-01 06:48:00,
2013-01-01 00:53:00,17.3,17.3,30.25,NNE,20,0.0,2.0,100,0.00,,,0.00,VWS V14.01,2013-01-01 06:53:00,
2013-01-01 00:58:00,17.3,17.3,30.25,NNE,20,1.0,2.0,100,0.00,,,0.00,VWS V14.01,2013-01-01 06:58:00,
2013-01-01 01:00:00,17.0,17.0,30.26,NNE,20,0.0,2.0,100,0.00,,,0.00,VWS V14.01,2013-01-01 07:00:00,
2013-01-01 01:03:00,17.2,17.2,30.25,NNE,20,0.0,0.0,100,0.00,,,0.00,VWS V14.01,2013-01-01 07:03:00,
2013-01-01 01:08:00,17.2,17.2,30.25,NNE,20,0.0,0.0,100,0.00,,,0.00,VWS V14.01,2013-01-01 07:08:00,
2013-01-01 01:13:00,17.2,17.2,30.25,NNE,20,0.0,2.0,100,0.00,,,0.00,VWS V14.01,2013-01-01 07:13:00,
2013-01-01 01:15:00,17.2,17.2,30.26,NNE,20,0.0,0.0,100,0.00,,,0.00,VWS V14.01,2013-01-01 07:15:00,
2013-01-01 01:18:00,17.0,17.0,30.25,NNE,20,1.0,2.0,100,0.00,,,0.00,VWS V14.01,2013-01-01 07:18:00,
2013-01-01 01:23:00,17.0,17.0,30.25,NNE,20,0.0,2.0,100,0.00,,,0.00,VWS V14.01,2013-01-01 07:23:00,
2013-01-01 01:28:00,17.0,17.0,30.25,NNE,20,0.0,2.0,100,0.00,,,0.00,VWS V14.01,2013-01-01 07:28:00,
2013-01-01 01:30:00,17.0,17.0,30.26,NNE,20,0.0,0.0,100,0.00,,,0.00,VWS V14.01,2013-01-01 07:30:00,
2013-01-01 01:33:00,17.0,17.0,30.25,NNE,20,0.0,2.0,100,0.00,,,0.00,VWS V14.01,2013-01-01 07:33:00,
2013-01-01 01:38:00,17.0,17.0,30.25,NNE,20,0.0,2.0,100,0.00,,,0.00,VWS V14.01,2013-01-01 07:38:00,
2013-01-01 01:43:00,17.0,17.0,30.25,NNE,20,0.0,2.0,100,0.00,,,0.00,VWS V14.01,2013-01-01 07:43:00,
2013-01-01 01:45:00,17.0,17.0,30.26,NNE,20,0.0,0.0,100,0.00,,,0.00,VWS V14.01,2013-01-01 07:45:00,
2013-01-01 01:48:00,17.0,17.0,30.25,NNE,20,1.0,1.0,100,0.00,,,0.00,VWS V14.01,2013-01-01 07:48:00,
2013-01-01 01:53:00,17.0,17.0,30.25,NNE,20,0.0,1.0,100,0.00,,,0.00,VWS V14.01,2013-01-01 07:53:00,
2013-01-01 01:58:00,17.0,17.0,30.25,NNE,20,0.0,1.0,100,0.00,,,0.00,VWS V14.01,2013-01-01 07:58:00,
2013-01-01 02:00:00,16.9,16.9,30.27,NNE,20,0.0,0.0,100,0.00,,,0.00,VWS V14.01,2013-01-01 08:00:00,
2013-01-01 02:03:00,17.0,17.0,30.26,NNE,20,0.0,0.0,100,0.00,,,0.00,VWS V14.01,2013-01-01 08:03:00,
2013-01-01 02:08:00,17.2,17.2,30.26,NNE,20,0.0,0.0,100,0.00,,,0.00,VWS V14.01,2013-01-01 08:08:00,
2013-01-01 02:13:00,17.2,17.2,30.26,NNE,20,0.0,0.0,100,0.00,,,0.00,VWS V14.01,2013-01-01 08:13:00,
2013-01-01 02:15:00,16.9,16.9,30.27,NNE,18,0.0,2.0,100,0.00,,,0.00,VWS V14.01,2013-01-01 08:15:00,
2013-01-01 02:18:00,17.2,17.2,30.26,NNE,20,0.0,0.0,100,0.00,,,0.00,VWS V14.01,2013-01-01 08:18:00,
2013-01-01 02:23:00,17.2,17.2,30.26,NNE,20,0.0,0.0,100,0.00,,,0.00,VWS V14.01,2013-01-01 08:23:00,
2013-01-01 02:28:00,17.2,17.2,30.26,NNE,20,0.0,0.0,100,0.00,,,0.00,VWS V14.01,2013-01-01 08:28:00,
2013-01-01 02:30:00,16.9,16.9,30.28,NNE,18,0.0,0.0,100,0.00,,,0.00,VWS V14.01,2013-01-01 08:30:00,
2013-01-01 02:33:00,17.0,17.0,30.26,NNE,20,0.0,0.0,100,0.00,,,0.00,VWS V14.01,2013-01-01 08:33:00,
2013-01-01 02:38:00,17.0,17.0,30.26,NNE,20,0.0,0.0,100,0.00,,,0.00,VWS V14.01,2013-01-01 08:38:00,
2013-01-01 02:43:00,17.0,17.0,30.26,NNE,20,0.0,0.0,100,0.00,,,0.00,VWS V14.01,2013-01-01 08:43:00,
2013-01-01 02:45:00,16.9,16.9,30.27,NNE,18,0.0,1.0,100,0.00,,,0.00,VWS V14.01,2013-01-01 08:45:00,
2013-01-01 02:48:00,16.9,16.9,30.26,NNE,20,0.0,0.0,100,0.00,,,0.00,VWS V14.01,2013-01-01 08:48:00,
2013-01-01 02:53:00,16.9,16.9,30.26,NNE,20,0.0,0.0,100,0.00,,,0.00,VWS V14.01,2013-01-01 08:53:00,
2013-01-01 02:58:00,16.9,16.9,30.26,NNE,20,0.0,0.0,100,0.00,,,0.00,VWS V14.01,2013-01-01 08:58:00,
2013-01-01 03:00:00,16.5,16.5,30.27,NNE,18,1.0,1.0,100,0.00,,,0.00,VWS V14.01,2013-01-01 09:00:00,
2013-01-01 03:03:00,16.9,16.9,30.27,NNE,20,0.0,0.0,100,0.00,,,0.00,VWS V14.01,2013-01-01 09:03:00,
2013-01-01 03:08:00,16.9,16.9,30.27,NNE,20,0.0,0.0,100,0.00,,,0.00,VWS V14.01,2013-01-01 09:08:00,
2013-01-01 03:13:00,16.9,16.9,30.27,NNE,18,0.0,2.0,100,0.00,,,0.00,VWS V14.01,2013-01-01 09:13:00,
2013-01-01 03:15:00,16.4,16.4,30.27,NNE,18,0.0,1.0,100,0.00,,,0.00,VWS V14.01,2013-01-01 09:15:00,
2013-01-01 03:18:00,16.9,16.9,30.27,NNE,18,0.0,0.0,100,0.00,,,0.00,VWS V14.01,2013-01-01 09:18:00,
2013-01-01 03:23:00,16.9,16.9,30.27,NNE,18,0.0,0.0,100,0.00,,,0.00,VWS V14.01,2013-01-01 09:23:00,
2013-01-01 03:28:00,17.0,17.0,30.27,NNE,18,0.0,0.0,100,0.00,,,0.00,VWS V14.01,2013-01-01 09:28:00,
2013-01-01 03:30:00,16.4,16.4,30.26,NNE,18,0.0,0.0,100,0.00,,,0.00,VWS V14.01,2013-01-01 09:30:00,
2013-01-01 03:33:00,16.9,16.9,30.28,NNE,18,1.0,1.0,100,0.00,,,0.00,VWS V14.01,2013-01-01 09:33:00,
2013-01-01 03:38:00,16.9,16.9,30.28,NNE,18,0.0,1.0,100,0.00,,,0.00,VWS V14.01,2013-01-01 09:38:00,
2013-01-01 03:43:00,16.9,16.9,30.28,NNE,18,0.0,1.0,100,0.00,,,0.00,VWS V14.01,2013-01-01 09:43:00,
2013-01-01 03:45:00,16.5,16.5,30.26,NNE,18,0.0,0.0,100,0.00,,,0.00,VWS V14.01,2013-01-01 09:45:00,
2013-01-01 03:48:00,16.7,16.7,30.27,NNE,18,0.0,0.0,100,0.00,,,0.00,VWS V14.01,2013-01-01 09:48:00,
2013-01-01 03:53:00,16.7,16.7,30.27,NNE,18,0.0,0.0,100,0.00,,,0.00,VWS V14.01,2013-01-01 09:53:00,
2013-01-01 03:58:00,16.7,16.7,30.27,NNE,18,0.0,0.0,100,0.00,,,0.00,VWS V14.01,2013-01-01 09:58:00,
2013-01-01 04:00:00,16.5,16.5,30.26,NNE,18,0.0,0.0,100,0.00,,,0.00,VWS V14.01,2013-01-01 10:00:00,
2013-01-01 04:03:00,16.5,16.5,30.27,NNE,18,0.0,1.0,100,0.00,,,0.00,VWS V14.01,2013-01-01 10:03:00,
2013-01-01 04:08:00,16.4,16.4,30.27,NNE,18,0.0,1.0,100,0.00,,,0.00,VWS V14.01,2013-01-01 10:08:00,
2013-01-01 04:13:00,16.4,16.4,30.27,NNE,18,0.0,1.0,100,0.00,,,0.00,VWS V14.01,2013-01-01 10:13:00,
2013-01-01 04:15:00,16.5,16.5,30.26,NNE,18,1.0,1.0,100,0.00,,,0.00,VWS V14.01,2013-01-01 10:15:00,
2013-01-01 04:18:00,16.4,16.4,30.27,NNE,18,0.0,0.0,100,0.00,,,0.00,VWS V14.01,2013-01-01 10:18:00,
2013-01-01 04:23:00,16.4,16.4,30.27,NNE,18,0.0,0.0,100,0.00,,,0.00,VWS V14.01,2013-01-01 10:23:00,
2013-01-01 04:28:00,16.4,16.4,30.27,NNE,18,0.0,0.0,100,0.00,,,0.00,VWS V14.01,2013-01-01 10:28:00,
2013-01-01 04:30:00,16.1,16.1,30.25,NNE,18,1.0,2.0,100,0.00,,,0.00,VWS V14.01,2013-01-01 10:30:00,
2013-01-01 04:33:00,16.4,16.4,30.26,NNE,18,0.0,0.0,100,0.00,,,0.00,VWS V14.01,2013-01-01 10:33:00,
2013-01-01 04:38:00,16.5,16.5,30.26,NNE,18,0.0,0.0,100,0.00,,,0.00,VWS V14.01,2013-01-01 10:38:00,
2013-01-01 04:43:00,16.5,16.5,30.26,NNE,18,0.0,0.0,100,0.00,,,0.00,VWS V14.01,2013-01-01 10:43:00,
2013-01-01 04:45:00,15.6,15.6,30.25,NNE,18,0.0,2.0,100,0.00,,,0.00,VWS V14.01,2013-01-01 10:45:00,
2013-01-01 04:48:00,16.5,16.5,30.26,NNE,18,0.0,0.0,100,0.00,,,0.00,VWS V14.01,2013-01-01 10:48:00,
2013-01-01 04:53:00,16.5,16.5,30.26,NNE,18,0.0,0.0,100,0.00,,,0.00,VWS V14.01,2013-01-01 10:53:00,
2013-01-01 04:58:00,16.5,16.5,30.26,NNE,18,0.0,0.0,100,0.00,,,0.00,VWS V14.01,2013-01-01 10:58:00,
2013-01-01 05:00:00,14.6,14.6,30.25,NNE,18,0.0,0.0,100,0.00,,,0.00,VWS V14.01,2013-01-01 11:00:00,
2013-01-01 05:03:00,16.5,16.5,30.26,NNE,18,0.0,0.0,100,0.00,,,0.00,VWS V14.01,2013-01-01 11:03:00,
2013-01-01 05:08:00,16.5,16.5,30.26,NNE,18,0.0,0.0,100,0.00,,,0.00,VWS V14.01,2013-01-01 11:08:00,
2013-01-01 05:13:00,16.5,16.5,30.26,NNE,18,0.0,0.0,100,0.00,,,0.00,VWS V14.01,2013-01-01 11:13:00,
2013-01-01 05:15:00,13.8,13.8,30.26,NNE,18,0.0,2.0,100,0.00,,,0.00,VWS V14.01,2013-01-01 11:15:00,
2013-01-01 05:18:00,16.5,16.5,30.26,NNE,18,2.0,2.0,100,0.00,,,0.00,VWS V14.01,2013-01-01 11:18:00,
2013-01-01 05:23:00,16.2,16.2,30.26,NNE,18,1.0,2.0,100,0.00,,,0.00,VWS V14.01,2013-01-01 11:23:00,
2013-01-01 05:28:00,16.2,16.2,30.26,NNE,18,1.0,2.0,100,0.00,,,0.00,VWS V14.01,2013-01-01 11:28:00,
2013-01-01 05:30:00,13.1,13.1,30.26,NNE,18,0.0,0.0,100,0.00,,,0.00,VWS V14.01,2013-01-01 11:30:00,
2013-01-01 05:33:00,16.1,16.1,30.25,NNE,18,1.0,2.0,100,0.00,,,0.00,VWS V14.01,2013-01-01 11:33:00,
2013-01-01 05:38:00,15.9,15.9,30.25,NNE,18,0.0,2.0,100,0.00,,,0.00,VWS V14.01,2013-01-01 11:38:00,
2013-01-01 05:43:00,15.7,15.7,30.25,NNE,18,0.0,2.0,100,0.00,,,0.00,VWS V14.01,2013-01-01 11:43:00,
2013-01-01 05:45:00,12.3,12.1,30.27,NNE,18,1.0,2.0,99,0.00,,,0.00,VWS V14.01,2013-01-01 11:45:00,
2013-01-01 05:48:00,15.6,15.6,30.25,NNE,18,0.0,0.0,100,0.00,,,0.00,VWS V14.01,2013-01-01 11:48:00,
2013-01-01 05:53:00,15.2,15.2,30.25,NNE,18,0.0,0.0,100,0.00,,,0.00,VWS V14.01,2013-01-01 11:53:00,
2013-01-01 05:58:00,14.9,14.9,30.25,NNE,18,0.0,0.0,100,0.00,,,0.00,VWS V14.01,2013-01-01 11:58:00,
2013-01-01 06:00:00,11.6,11.1,30.27,NNE,18,1.0,2.0,98,0.00,,,0.00,VWS V14.01,2013-01-01 12:00:00,
2013-01-01 06:03:00,14.6,14.6,30.25,NNE,18,0.0,0.0,100,0.00,,,0.00,VWS V14.01,2013-01-01 12:03:00,
2013-01-01 06:08:00,14.3,14.3,30.25,NNE,18,0.0,0.0,100,0.00,,,0.00,VWS V14.01,2013-01-01 12:08:00,
2013-01-01 06:13:00,14.0,14.0,30.25,NNE,18,1.0,2.0,100,0.00,,,0.00,VWS V14.01,2013-01-01 12:13:00,
2013-01-01 06:15:00,10.5,10.1,30.27,NNE,18,1.0,2.0,98,0.00,,,0.00,VWS V14.01,2013-01-01 12:15:00,
2013-01-01 06:18:00,13.8,13.8,30.26,NNE,18,0.0,0.0,100,0.00,,,0.00,VWS V14.01,2013-01-01 12:18:00,
2013-01-01 06:23:00,13.6,13.6,30.26,NNE,18,0.0,0.0,100,0.00,,,0.00,VWS V14.01,2013-01-01 12:23:00,
2013-01-01 06:28:00,13.3,13.3,30.26,NNE,18,0.0,0.0,100,0.00,,,0.00,VWS V14.01,2013-01-01 12:28:00,
2013-01-01 06:30:00,10.0,9.6,30.28,NNE,18,1.0,3.0,98,0.00,,,0.00,VWS V14.01,2013-01-01 12:30:00,
2013-01-01 06:33:00,13.1,13.1,30.26,NNE,18,2.0,2.0,100,0.00,,,0.00,VWS V14.01,2013-01-01 12:33:00,
2013-01-01 06:38:00,12.8,12.8,30.26,NNE,18,2.0,2.0,100,0.00,,,0.00,VWS V14.01,2013-01-01 12:38:00,
2013-01-01 06:43:00,12.4,12.2,30.26,NNE,18,1.0,2.0,99,0.00,,,0.00,VWS V14.01,2013-01-01 12:43:00,
2013-01-01 06:45:00,9.5,8.8,30.28,NNE,18,1.0,3.0,97,0.00,,,0.00,VWS V14.01,2013-01-01 12:45:00,
2013-01-01 06:48:00,12.1,11.9,30.27,NNE,18,0.0,2.0,99,0.00,,,0.00,VWS V14.01,2013-01-01 12:48:00,
2013-01-01 06:53:00,11.7,11.5,30.27,NNE,18,2.0,2.0,99,0.00,,,0.00,VWS V14.01,2013-01-01 12:53:00,
2013-01-01 06:58:00,11.6,11.4,30.27,NNE,18,0.0,2.0,99,0.00,,,0.00,VWS V14.01,2013-01-01 12:58:00,
2013-01-01 07:03:00,11.4,10.9,30.27,NNE,18,0.0,2.0,98,0.00,,,0.00,VWS V14.01,2013-01-01 13:03:00,
2013-01-01 07:08:00,11.1,10.6,30.27,NNE,18,0.0,2.0,98,0.00,,,0.00,VWS V14.01,2013-01-01 13:08:00,
2013-01-01 07:13:00,10.7,10.5,30.27,NNE,18,1.0,2.0,99,0.00,,,0.00,VWS V14.01,2013-01-01 13:13:00,
2013-01-01 07:15:00,7.9,7.0,30.30,WSW,241,0.0,2.0,96,0.00,,,0.00,VWS V14.01,2013-01-01 13:15:00,
2013-01-01 07:18:00,10.4,9.9,30.27,NNE,18,1.0,2.0,98,0.00,,,0.00,VWS V14.01,2013-01-01 13:18:00,
2013-01-01 07:23:00,10.2,9.8,30.27,NNE,18,1.0,3.0,98,0.00,,,0.00,VWS V14.01,2013-01-01 13:23:00,
2013-01-01 07:28:00,10.0,9.6,30.27,NNE,18,2.0,3.0,98,0.00,,,0.00,VWS V14.01,2013-01-01 13:28:00,
2013-01-01 07:30:00,8.4,7.7,30.31,WSW,241,2.0,2.0,97,0.00,,,0.00,VWS V14.01,2013-01-01 13:30:00,
2013-01-01 07:33:00,10.0,9.6,30.28,NNE,18,2.0,3.0,98,0.00,,,0.00,VWS V14.01,2013-01-01 13:33:00,
2013-01-01 07:38:00,10.0,9.6,30.28,NNE,18,2.0,3.0,98,0.00,,,0.00,VWS V14.01,2013-01-01 13:38:00,
2013-01-01 07:43:00,9.7,9.0,30.28,NNE,18,1.0,3.0,97,0.00,,,0.00,VWS V14.01,2013-01-01 13:43:00,
2013-01-01 07:45:00,10.0,9.6,30.31,WSW,244,1.0,2.0,98,0.00,,,0.00,VWS V14.01,2013-01-01 13:45:00,
2013-01-01 07:48:00,9.3,8.6,30.28,NNE,18,1.0,2.0,97,0.00,,,0.00,VWS V14.01,2013-01-01 13:48:00,
2013-01-01 07:53:00,8.8,8.1,30.28,West,265,2.0,2.0,97,0.00,,,0.00,VWS V14.01,2013-01-01 13:53:00,
2013-01-01 07:59:00,8.6,7.7,30.28,WSW,244,1.0,2.0,96,0.00,,,0.00,VWS V14.01,2013-01-01 13:59:00,
2013-01-01 08:00:00,10.9,10.7,30.31,WSW,243,1.0,3.0,99,0.00,,,0.00,VWS V14.01,2013-01-01 14:00:00,
2013-01-01 08:04:00,8.3,7.4,30.30,WSW,244,2.0,2.0,96,0.00,,,0.00,VWS V14.01,2013-01-01 14:04:00,
2013-01-01 08:09:00,8.1,7.2,30.30,WSW,243,1.0,2.0,96,0.00,,,0.00,VWS V14.01,2013-01-01 14:09:00,
2013-01-01 08:14:00,7.9,7.0,30.30,WSW,241,1.0,2.0,96,0.00,,,0.00,VWS V14.01,2013-01-01 14:14:00,
2013-01-01 08:15:00,12.3,12.3,30.31,SW,224,5.0,7.0,100,0.00,,,0.00,VWS V14.01,2013-01-01 14:15:00,
2013-01-01 08:19:00,7.9,7.0,30.30,WSW,241,1.0,2.0,96,0.00,,,0.00,VWS V14.01,2013-01-01 14:19:00,
2013-01-01 08:24:00,7.9,7.0,30.30,WSW,241,1.0,2.0,96,0.00,,,0.00,VWS V14.01,2013-01-01 14:24:00,
2013-01-01 08:29:00,8.3,7.6,30.30,WSW,241,2.0,2.0,97,0.00,,,0.00,VWS V14.01,2013-01-01 14:29:00,
2013-01-01 08:30:00,12.6,12.6,30.31,SW,234,2.0,6.0,100,0.00,,,0.00,VWS V14.01,2013-01-01 14:30:00,
2013-01-01 08:34:00,8.6,7.9,30.31,WSW,241,1.0,2.0,97,0.00,,,0.00,VWS V14.01,2013-01-01 14:34:00,
2013-01-01 08:39:00,9.2,8.3,30.31,WSW,243,2.0,2.0,96,0.00,,,0.00,VWS V14.01,2013-01-01 14:39:00,
2013-01-01 08:44:00,9.7,9.2,30.31,WSW,244,2.0,2.0,98,0.00,,,0.00,VWS V14.01,2013-01-01 14:44:00,
2013-01-01 08:45:00,13.3,13.3,30.32,SW,234,2.0,5.0,100,0.00,,,0.00,VWS V14.01,2013-01-01 14:45:00,
2013-01-01 08:49:00,10.2,9.8,30.31,WSW,240,2.0,3.0,98,0.00,,,0.00,VWS V14.01,2013-01-01 14:49:00,
2013-01-01 08:54:00,10.5,10.3,30.31,WSW,241,1.0,3.0,99,0.00,,,0.00,VWS V14.01,2013-01-01 14:54:00,
2013-01-01 08:59:00,10.7,10.5,30.31,WSW,241,2.0,3.0,99,0.00,,,0.00,VWS V14.01,2013-01-01 14:59:00,
2013-01-01 09:00:00,14.0,14.0,30.31,SW,226,2.0,6.0,100,0.00,,,0.00,VWS V14.01,2013-01-01 15:00:00,
2013-01-01 09:04:00,11.1,10.9,30.31,WSW,244,4.0,4.0,99,0.00,,,0.00,VWS V14.01,2013-01-01 15:04:00,
2013-01-01 09:09:00,11.6,11.6,30.31,WSW,243,5.0,5.0,100,0.00,,,0.00,VWS V14.01,2013-01-01 15:09:00,
2013-01-01 09:14:00,12.1,12.1,30.31,SW,227,6.0,7.0,100,0.00,,,0.00,VWS V14.01,2013-01-01 15:14:00,
2013-01-01 09:15:00,14.4,14.4,30.32,SSW,213,4.0,5.0,100,0.00,,,0.00,VWS V14.01,2013-01-01 15:15:00,
2013-01-01 09:19:00,12.3,12.1,30.31,SW,234,4.0,6.0,99,0.00,,,0.00,VWS V14.01,2013-01-01 15:19:00,
2013-01-01 09:24:00,12.4,12.4,30.31,SW,233,2.0,6.0,100,0.00,,,0.00,VWS V14.01,2013-01-01 15:24:00,
2013-01-01 09:29:00,12.6,12.6,30.31,SW,234,2.0,6.0,100,0.00,,,0.00,VWS V14.01,2013-01-01 15:29:00,
2013-01-01 09:30:00,15.4,15.4,30.32,SSW,212,2.0,5.0,100,0.00,,,0.00,VWS V14.01,2013-01-01 15:30:00,
2013-01-01 09:34:00,12.8,12.8,30.31,SW,236,2.0,3.0,100,0.00,,,0.00,VWS V14.01,2013-01-01 15:34:00,
2013-01-01 09:39:00,12.9,12.9,30.31,SW,234,3.0,5.0,100,0.00,,,0.00,VWS V14.01,2013-01-01 15:39:00,
2013-01-01 09:44:00,13.3,13.3,30.31,SW,234,2.0,5.0,100,0.00,,,0.00,VWS V14.01,2013-01-01 15:44:00,
2013-01-01 09:45:00,16.4,16.4,30.31,SW,217,2.0,6.0,100,0.00,,,0.00,VWS V14.01,2013-01-01 15:45:00,
2013-01-01 09:49:00,13.5,13.5,30.32,SW,236,4.0,5.0,100,0.00,,,0.00,VWS V14.01,2013-01-01 15:49:00,
2013-01-01 09:54:00,13.6,13.6,30.32,SW,233,3.0,5.0,100,0.00,,,0.00,VWS V14.01,2013-01-01 15:54:00,
2013-01-01 09:59:00,13.8,13.8,30.32,SW,226,5.0,6.0,100,0.00,,,0.00,VWS V14.01,2013-01-01 15:59:00,
2013-01-01 10:00:00,17.8,17.8,30.30,SW,223,6.0,7.0,100,0.00,,,0.00,VWS V14.01,2013-01-01 16:00:00,
2013-01-01 10:04:00,14.1,14.1,30.31,SW,219,5.0,5.0,100,0.00,,,0.00,VWS V14.01,2013-01-01 16:04:00,
2013-01-01 10:09:00,14.3,14.3,30.31,SSW,212,5.0,5.0,100,0.00,,,0.00,VWS V14.01,2013-01-01 16:09:00,
2013-01-01 10:14:00,14.4,14.4,30.31,SW,216,2.0,5.0,100,0.00,,,0.00,VWS V14.01,2013-01-01 16:14:00,
2013-01-01 10:15:00,18.9,18.9,30.30,SW,217,4.0,6.0,100,0.00,,,0.00,VWS V14.01,2013-01-01 16:15:00,
2013-01-01 10:19:00,14.6,14.6,30.32,SW,216,3.0,5.0,100,0.00,,,0.00,VWS V14.01,2013-01-01 16:19:00,
2013-01-01 10:24:00,14.8,14.8,30.32,SSW,212,2.0,5.0,100,0.00,,,0.00,VWS V14.01,2013-01-01 16:24:00,
2013-01-01 10:29:00,15.2,15.2,30.32,SSW,213,3.0,5.0,100,0.00,,,0.00,VWS V14.01,2013-01-01 16:29:00,
2013-01-01 10:30:00,18.4,18.4,30.29,WSW,243,10.0,10.0,100,0.00,,,0.00,VWS V14.01,2013-01-01 16:30:00,
2013-01-01 10:34:00,15.6,15.6,30.32,SSW,213,5.0,5.0,100,0.00,,,0.00,VWS V14.01,2013-01-01 16:34:00,
2013-01-01 10:39:00,15.7,15.7,30.32,SSW,210,5.0,5.0,100,0.00,,,0.00,VWS V14.01,2013-01-01 16:39:00,
2013-01-01 10:44:00,16.2,16.2,30.32,SW,217,2.0,6.0,100,0.00,,,0.00,VWS V14.01,2013-01-01 16:44:00,
2013-01-01 10:45:00,18.9,18.9,30.28,SW,220,7.0,11.0,100,0.00,,,0.00,VWS V14.01,2013-01-01 16:45:00,
2013-01-01 10:49:00,16.7,16.7,30.31,SW,220,4.0,6.0,100,0.00,,,0.00,VWS V14.01,2013-01-01 16:49:00,
2013-01-01 10:54:00,17.3,17.3,30.31,SW,220,5.0,7.0,100,0.00,,,0.00,VWS V14.01,2013-01-01 16:54:00,
2013-01-01 10:59:00,17.7,17.7,30.31,SW,230,7.0,7.0,100,0.00,,,0.00,VWS V14.01,2013-01-01 16:59:00,
2013-01-01 11:00:00,18.9,18.9,30.28,WSW,243,7.0,12.0,100,0.00,,,0.00,VWS V14.01,2013-01-01 17:00:00,
2013-01-01 11:04:00,18.1,18.1,30.30,SW,217,4.0,6.0,100,0.00,,,0.00,VWS V14.01,2013-01-01 17:04:00,
2013-01-01 11:09:00,18.4,18.4,30.30,SW,215,2.0,6.0,100,0.00,,,0.00,VWS V14.01,2013-01-01 17:09:00,
2013-01-01 11:14:00,18.8,18.8,30.30,SW,216,4.0,6.0,100,0.00,,,0.00,VWS V14.01,2013-01-01 17:14:00,
2013-01-01 11:15:00,18.8,18.8,30.26,WSW,248,7.0,10.0,100,0.00,,,0.00,VWS V14.01,2013-01-01 17:15:00,
2013-01-01 11:19:00,18.8,18.8,30.30,SW,230,7.0,8.0,100,0.00,,,0.00,VWS V14.01,2013-01-01 17:19:00,
2013-01-01 11:24:00,18.6,18.6,30.30,SW,229,6.0,10.0,100,0.00,,,0.00,VWS V14.01,2013-01-01 17:24:00,
2013-01-01 11:29:00,18.4,18.4,30.30,WSW,239,5.0,10.0,100,0.00,,,0.00,VWS V14.01,2013-01-01 17:29:00,
2013-01-01 11:30:00,18.6,18.6,30.26,WSW,243,10.0,11.0,100,0.00,,,0.00,VWS V14.01,2013-01-01 17:30:00,
2013-01-01 11:34:00,18.3,18.3,30.29,WSW,241,8.0,10.0,100,0.00,,,0.00,VWS V14.01,2013-01-01 17:34:00,
2013-01-01 11:39:00,18.4,18.4,30.29,WSW,241,8.0,10.0,100,0.00,,,0.00,VWS V14.01,2013-01-01 17:39:00,
2013-01-01 11:44:00,18.8,18.8,30.29,SW,229,10.0,11.0,100,0.00,,,0.00,VWS V14.01,2013-01-01 17:44:00,
2013-01-01 11:45:00,19.4,19.4,30.25,WSW,248,7.0,12.0,100,0.00,,,0.00,VWS V14.01,2013-01-01 17:45:00,
2013-01-01 11:49:00,18.9,18.9,30.28,SW,227,8.0,12.0,100,0.00,,,0.00,VWS V14.01,2013-01-01 17:49:00,
2013-01-01 11:54:00,18.9,18.9,30.28,SW,236,9.0,12.0,100,0.00,,,0.00,VWS V14.01,2013-01-01 17:54:00,
2013-01-01 11:59:00,18.9,18.9,30.28,WSW,250,5.0,12.0,100,0.00,,,0.00,VWS V14.01,2013-01-01 17:59:00,
2013-01-01 12:00:00,19.7,19.7,30.25,WSW,247,8.0,12.0,100,0.00,,,0.00,VWS V14.01,2013-01-01 18:00:00,
2013-01-01 12:04:00,19.1,19.1,30.28,SW,227,7.0,10.0,100,0.00,,,0.00,VWS V14.01,2013-01-01 18:04:00,
2013-01-01 12:09:00,19.1,19.1,30.28,WSW,246,7.0,10.0,100,0.00,,,0.00,VWS V14.01,2013-01-01 18:09:00,
2013-01-01 12:14:00,18.9,18.9,30.28,WSW,239,8.0,10.0,100,0.00,,,0.00,VWS V14.01,2013-01-01 18:14:00,
2013-01-01 12:15:00,20.2,20.2,30.24,WSW,256,6.0,10.0,100,0.00,,,0.00,VWS V14.01,2013-01-01 18:15:00,
2013-01-01 12:19:00,18.8,18.8,30.26,WSW,240,7.0,9.0,100,0.00,,,0.00,VWS V14.01,2013-01-01 18:19:00,
2013-01-01 12:24:00,18.6,18.6,30.26,WSW,239,8.0,11.0,100,0.00,,,0.00,VWS V14.01,2013-01-01 18:24:00,
2013-01-01 12:29:00,18.6,18.6,30.26,WSW,254,7.0,11.0,100,0.00,,,0.00,VWS V14.01,2013-01-01 18:29:00,
2013-01-01 12:30:00,20.0,19.8,30.24,WSW,246,9.0,12.0,99,0.00,,,0.00,VWS V14.01,2013-01-01 18:30:00,
2013-01-01 12:34:00,18.8,18.8,30.26,SW,229,10.0,11.0,100,0.00,,,0.00,VWS V14.01,2013-01-01 18:34:00,
2013-01-01 12:39:00,19.2,19.2,30.26,SW,226,10.0,11.0,100,0.00,,,0.00,VWS V14.01,2013-01-01 18:39:00,
2013-01-01 12:44:00,19.4,19.4,30.26,WSW,253,6.0,12.0,100,0.00,,,0.00,VWS V14.01,2013-01-01 18:44:00,
2013-01-01 12:45:00,20.2,19.0,30.23,WSW,246,10.0,13.0,95,0.00,,,0.00,VWS V14.01,2013-01-01 18:45:00,
2013-01-01 12:49:00,19.4,19.4,30.25,WSW,244,8.0,12.0,100,0.00,,,0.00,VWS V14.01,2013-01-01 18:49:00,
2013-01-01 12:54:00,19.4,19.4,30.25,WSW,244,7.0,12.0,100,0.00,,,0.00,VWS V14.01,2013-01-01 18:54:00,
2013-01-01 12:59:00,19.5,19.5,30.25,WSW,253,7.0,12.0,100,0.00,,,0.00,VWS V14.01,2013-01-01 18:59:00,
2013-01-01 13:00:00,21.0,18.5,30.21,WSW,237,10.0,13.0,90,0.00,,,0.00,VWS V14.01,2013-01-01 19:00:00,
2013-01-01 13:04:00,19.9,19.9,30.25,WSW,248,5.0,10.0,100,0.00,,,0.00,VWS V14.01,2013-01-01 19:04:00,
2013-01-01 13:09:00,20.0,20.0,30.25,WSW,256,5.0,10.0,100,0.00,,,0.00,VWS V14.01,2013-01-01 19:09:00,
2013-01-01 13:14:00,20.2,20.2,30.25,WSW,254,3.0,10.0,100,0.00,,,0.00,VWS V14.01,2013-01-01 19:14:00,
2013-01-01 13:15:00,21.8,18.3,30.21,SW,230,10.0,14.0,86,0.00,,,0.00,VWS V14.01,2013-01-01 19:15:00,
2013-01-01 13:19:00,20.2,20.2,30.24,WSW,253,5.0,8.0,100,0.00,,,0.00,VWS V14.01,2013-01-01 19:19:00,
2013-01-01 13:24:00,20.0,20.0,30.24,WSW,248,7.0,12.0,100,0.00,,,0.00,VWS V14.01,2013-01-01 19:24:00,
2013-01-01 13:29:00,20.0,20.0,30.24,WSW,251,7.0,12.0,100,0.00,,,0.00,VWS V14.01,2013-01-01 19:29:00,
2013-01-01 13:30:00,22.2,18.1,30.21,WSW,237,7.0,13.0,84,0.00,,,0.00,VWS V14.01,2013-01-01 19:30:00,
2013-01-01 13:34:00,20.0,19.5,30.24,WSW,250,11.0,11.0,98,0.00,,,0.00,VWS V14.01,2013-01-01 19:34:00,
2013-01-01 13:39:00,20.0,19.3,30.24,WSW,247,8.0,13.0,97,0.00,,,0.00,VWS V14.01,2013-01-01 19:39:00,
2013-01-01 13:44:00,20.2,19.2,30.24,WSW,241,9.0,13.0,96,0.00,,,0.00,VWS V14.01,2013-01-01 19:44:00,
2013-01-01 13:45:00,22.4,17.8,30.21,SW,236,12.0,14.0,82,0.00,,,0.00,VWS V14.01,2013-01-01 19:45:00,
2013-01-01 13:49:00,20.2,18.8,30.23,WSW,247,11.0,13.0,94,0.00,,,0.00,VWS V14.01,2013-01-01 19:49:00,
2013-01-01 13:54:00,20.6,18.6,30.23,WSW,250,10.0,13.0,92,0.00,,,0.00,VWS V14.01,2013-01-01 19:54:00,
2013-01-01 13:59:00,20.8,18.6,30.23,SW,229,7.0,13.0,91,0.00,,,0.00,VWS V14.01,2013-01-01 19:59:00,
2013-01-01 14:00:00,23.0,18.0,30.20,SW,236,11.0,14.0,81,0.00,,,0.00,VWS V14.01,2013-01-01 20:00:00,
2013-01-01 14:04:00,21.3,18.0,30.21,SW,236,7.0,12.0,87,0.00,,,0.00,VWS V14.01,2013-01-01 20:04:00,
2013-01-01 14:09:00,21.6,18.3,30.21,SW,233,7.0,12.0,87,0.00,,,0.00,VWS V14.01,2013-01-01 20:09:00,
2013-01-01 14:14:00,21.8,18.0,30.21,SW,229,12.0,14.0,85,0.00,,,0.00,VWS V14.01,2013-01-01 20:14:00,
2013-01-01 14:15:00,23.5,18.5,30.20,WSW,244,9.0,14.0,81,0.00,,,0.00,VWS V14.01,2013-01-01 20:15:00,
2013-01-01 14:19:00,22.1,18.3,30.21,SW,236,10.0,12.0,85,0.00,,,0.00,VWS V14.01,2013-01-01 20:19:00,
2013-01-01 14:24:00,22.2,17.8,30.21,SW,236,8.0,12.0,83,0.00,,,0.00,VWS V14.01,2013-01-01 20:24:00,
2013-01-01 14:29:00,22.2,18.1,30.21,SW,229,10.0,13.0,84,0.00,,,0.00,VWS V14.01,2013-01-01 20:29:00,
2013-01-01 14:30:00,23.6,18.4,30.19,WSW,240,9.0,13.0,80,0.00,,,0.00,VWS V14.01,2013-01-01 20:30:00,
2013-01-01 14:34:00,22.2,18.1,30.21,SW,234,10.0,12.0,84,0.00,,,0.00,VWS V14.01,2013-01-01 20:34:00,
2013-01-01 14:39:00,22.4,18.3,30.21,WSW,240,10.0,14.0,84,0.00,,,0.00,VWS V14.01,2013-01-01 20:39:00,
2013-01-01 14:44:00,22.4,18.0,30.21,SW,233,12.0,14.0,83,0.00,,,0.00,VWS V14.01,2013-01-01 20:44:00,
2013-01-01 14:45:00,23.6,18.1,30.19,WSW,241,8.0,12.0,79,0.00,,,0.00,VWS V14.01,2013-01-01 20:45:00,
2013-01-01 14:49:00,22.5,18.1,30.21,SW,233,12.0,14.0,83,0.00,,,0.00,VWS V14.01,2013-01-01 20:49:00,
2013-01-01 14:54:00,22.9,18.5,30.21,SW,224,10.0,14.0,83,0.00,,,0.00,VWS V14.01,2013-01-01 20:54:00,
2013-01-01 14:59:00,23.0,18.3,30.21,SW,236,12.0,14.0,82,0.00,,,0.00,VWS V14.01,2013-01-01 20:59:00,
2013-01-01 15:00:00,23.3,17.8,30.19,WSW,248,7.0,13.0,79,0.00,,,0.00,VWS V14.01,2013-01-01 21:00:00,
2013-01-01 15:04:00,23.2,18.5,30.20,WSW,244,10.0,14.0,82,0.00,,,0.00,VWS V14.01,2013-01-01 21:04:00,
2013-01-01 15:09:00,23.2,18.5,30.20,WSW,241,11.0,14.0,82,0.00,,,0.00,VWS V14.01,2013-01-01 21:09:00,
2013-01-01 15:14:00,23.3,18.3,30.20,WSW,247,9.0,14.0,81,0.00,,,0.00,VWS V14.01,2013-01-01 21:14:00,
2013-01-01 15:15:00,23.3,18.1,30.19,SW,234,6.0,11.0,80,0.00,,,0.00,VWS V14.01,2013-01-01 21:15:00,
2013-01-01 15:19:00,23.5,18.2,30.20,SW,232,11.0,13.0,80,0.00,,,0.00,VWS V14.01,2013-01-01 21:19:00,
2013-01-01 15:24:00,23.6,18.1,30.20,WSW,240,10.0,13.0,79,0.00,,,0.00,VWS V14.01,2013-01-01 21:24:00,
2013-01-01 15:29:00,23.6,18.4,30.20,SW,224,10.0,13.0,80,0.00,,,0.00,VWS V14.01,2013-01-01 21:29:00,
2013-01-01 15:30:00,23.2,18.2,30.19,SW,236,6.0,12.0,81,0.00,,,0.00,VWS V14.01,2013-01-01 21:30:00,
2013-01-01 15:34:00,23.6,18.4,30.19,WSW,247,10.0,12.0,80,0.00,,,0.00,VWS V14.01,2013-01-01 21:34:00,
2013-01-01 15:39:00,23.6,18.6,30.19,WSW,241,8.0,12.0,81,0.00,,,0.00,VWS V14.01,2013-01-01 21:39:00,
2013-01-01 15:44:00,23.6,18.9,30.19,WSW,241,10.0,12.0,82,0.00,,,0.00,VWS V14.01,2013-01-01 21:44:00,
2013-01-01 15:45:00,23.0,17.8,30.19,WSW,247,10.0,12.0,80,0.00,,,0.00,VWS V14.01,2013-01-01 21:45:00,
2013-01-01 15:49:00,23.6,18.1,30.19,WSW,244,11.0,12.0,79,0.00,,,0.00,VWS V14.01,2013-01-01 21:49:00,
2013-01-01 15:54:00,23.3,18.1,30.19,SW,229,9.0,13.0,80,0.00,,,0.00,VWS V14.01,2013-01-01 21:54:00,
2013-01-01 15:59:00,23.3,18.3,30.19,WSW,244,6.0,13.0,81,0.00,,,0.00,VWS V14.01,2013-01-01 21:59:00,
2013-01-01 16:00:00,22.2,17.3,30.19,WSW,244,8.0,11.0,81,0.00,,,0.00,VWS V14.01,2013-01-01 22:00:00,
2013-01-01 16:04:00,23.3,18.1,30.19,WSW,254,9.0,11.0,80,0.00,,,0.00,VWS V14.01,2013-01-01 22:04:00,
2013-01-01 16:09:00,23.3,18.3,30.19,WSW,241,9.0,11.0,81,0.00,,,0.00,VWS V14.01,2013-01-01 22:09:00,
2013-01-01 16:14:00,23.3,18.3,30.19,WSW,239,6.0,11.0,81,0.00,,,0.00,VWS V14.01,2013-01-01 22:14:00,
2013-01-01 16:15:00,21.6,16.7,30.20,WSW,244,7.0,11.0,81,0.00,,,0.00,VWS V14.01,2013-01-01 22:15:00,
2013-01-01 16:19:00,23.3,18.3,30.19,SW,229,5.0,9.0,81,0.00,,,0.00,VWS V14.01,2013-01-01 22:19:00,
2013-01-01 16:24:00,23.2,18.5,30.19,SW,234,7.0,12.0,82,0.00,,,0.00,VWS V14.01,2013-01-01 22:24:00,
2013-01-01 16:29:00,23.2,18.2,30.19,WSW,244,7.0,12.0,81,0.00,,,0.00,VWS V14.01,2013-01-01 22:29:00,
2013-01-01 16:30:00,20.6,15.7,30.19,WSW,250,5.0,10.0,81,0.00,,,0.00,VWS V14.01,2013-01-01 22:30:00,
2013-01-01 16:34:00,23.0,17.8,30.19,WSW,241,6.0,10.0,80,0.00,,,0.00,VWS V14.01,2013-01-01 22:34:00,
2013-01-01 16:39:00,23.0,17.8,30.19,WSW,244,7.0,11.0,80,0.00,,,0.00,VWS V14.01,2013-01-01 22:39:00,
2013-01-01 16:44:00,23.0,18.0,30.19,WSW,247,7.0,12.0,81,0.00,,,0.00,VWS V14.01,2013-01-01 22:44:00,
2013-01-01 16:45:00,19.7,15.4,30.20,WSW,251,5.0,7.0,83,0.00,,,0.00,VWS V14.01,2013-01-01 22:45:00,
2013-01-01 16:49:00,22.9,18.0,30.19,WSW,243,10.0,11.0,81,0.00,,,0.00,VWS V14.01,2013-01-01 22:49:00,
2013-01-01 16:54:00,22.5,17.6,30.19,WSW,243,7.0,11.0,81,0.00,,,0.00,VWS V14.01,2013-01-01 22:54:00,
2013-01-01 16:59:00,22.2,17.3,30.19,WSW,246,7.0,11.0,81,0.00,,,0.00,VWS V14.01,2013-01-01 22:59:00,
2013-01-01 17:00:00,18.8,15.1,30.19,WSW,244,6.0,7.0,85,0.00,,,0.00,VWS V14.01,2013-01-01 23:00:00,
2013-01-01 17:04:00,22.1,16.9,30.19,WSW,244,7.0,9.0,80,0.00,,,0.00,VWS V14.01,2013-01-01 23:04:00,
2013-01-01 17:09:00,21.9,16.7,30.19,WSW,247,8.0,11.0,80,0.00,,,0.00,VWS V14.01,2013-01-01 23:09:00,
2013-01-01 17:14:00,21.8,16.6,30.19,WSW,243,10.0,11.0,80,0.00,,,0.00,VWS V14.01,2013-01-01 23:14:00,
2013-01-01 17:15:00,18.4,14.1,30.21,WSW,256,2.0,7.0,83,0.00,,,0.00,VWS V14.01,2013-01-01 23:15:00,
2013-01-01 17:19:00,21.3,16.4,30.20,WSW,243,6.0,10.0,81,0.00,,,0.00,VWS V14.01,2013-01-01 23:19:00,
2013-01-01 17:24:00,21.0,15.8,30.20,WSW,250,5.0,10.0,80,0.00,,,0.00,VWS V14.01,2013-01-01 23:24:00,
2013-01-01 17:29:00,20.6,16.0,30.20,WSW,247,5.0,10.0,82,0.00,,,0.00,VWS V14.01,2013-01-01 23:29:00,
2013-01-01 17:30:00,17.8,13.5,30.21,WSW,251,3.0,7.0,83,0.00,,,0.00,VWS V14.01,2013-01-01 23:30:00,
2013-01-01 17:34:00,20.5,15.9,30.19,WSW,251,6.0,7.0,82,0.00,,,0.00,VWS V14.01,2013-01-01 23:34:00,
2013-01-01 17:39:00,20.0,14.8,30.19,WSW,248,6.0,7.0,80,0.00,,,0.00,VWS V14.01,2013-01-01 23:39:00,
2013-01-01 17:44:00,19.7,14.5,30.19,WSW,250,6.0,7.0,80,0.00,,,0.00,VWS V14.01,2013-01-01 23:44:00,
2013-01-01 17:45:00,17.3,13.3,30.21,WSW,250,3.0,7.0,84,0.00,,,0.00,VWS V14.01,2013-01-01 23:45:00,
2013-01-01 17:49:00,19.5,14.9,30.20,WSW,251,5.0,7.0,82,0.00,,,0.00,VWS V14.01,2013-01-01 23:49:00,
2013-01-01 17:54:00,19.2,14.6,30.20,WSW,250,5.0,7.0,82,0.00,,,0.00,VWS V14.01,2013-01-01 23:54:00,
2013-01-01 17:59:00,18.8,14.8,30.20,WSW,246,5.0,7.0,84,0.00,,,0.00,VWS V14.01,2013-01-01 23:59:00,
2013-01-01 18:00:00,17.0,13.3,30.22,WSW,250,3.0,6.0,85,0.00,,,0.00,VWS V14.01,2013-01-02 00:00:00,
2013-01-01 18:04:00,18.6,14.3,30.19,WSW,250,3.0,7.0,83,0.00,,,0.00,VWS V14.01,2013-01-02 00:04:00,
2013-01-01 18:09:00,18.4,14.4,30.19,WSW,256,3.0,7.0,84,0.00,,,0.00,VWS V14.01,2013-01-02 00:09:00,
2013-01-01 18:14:00,18.4,14.1,30.19,WSW,256,1.0,7.0,83,0.00,,,0.00,VWS V14.01,2013-01-02 00:14:00,
2013-01-01 18:15:00,16.4,12.7,30.24,WSW,247,6.0,6.0,85,0.00,,,0.00,VWS V14.01,2013-01-02 00:15:00,
2013-01-01 18:19:00,18.3,14.0,30.21,WSW,256,2.0,5.0,83,0.00,,,0.00,VWS V14.01,2013-01-02 00:19:00,
2013-01-01 18:24:00,18.1,13.5,30.21,WSW,253,5.0,5.0,82,0.00,,,0.00,VWS V14.01,2013-01-02 00:24:00,
2013-01-01 18:29:00,18.0,14.0,30.21,WSW,251,4.0,7.0,84,0.00,,,0.00,VWS V14.01,2013-01-02 00:29:00,
2013-01-01 18:30:00,16.4,12.7,30.23,WSW,251,3.0,6.0,85,0.00,,,0.00,VWS V14.01,2013-01-02 00:30:00,
2013-01-01 18:34:00,17.7,13.4,30.21,WSW,250,3.0,5.0,83,0.00,,,0.00,VWS V14.01,2013-01-02 00:34:00,
2013-01-01 18:39:00,17.5,13.5,30.21,WSW,256,3.0,7.0,84,0.00,,,0.00,VWS V14.01,2013-01-02 00:39:00,
2013-01-01 18:44:00,17.5,13.2,30.21,WSW,250,1.0,7.0,83,0.00,,,0.00,VWS V14.01,2013-01-02 00:44:00,
2013-01-01 18:45:00,15.7,12.5,30.24,WSW,250,5.0,7.0,87,0.00,,,0.00,VWS V14.01,2013-01-02 00:45:00,
2013-01-01 18:49:00,17.3,13.6,30.21,WSW,251,4.0,5.0,85,0.00,,,0.00,VWS V14.01,2013-01-02 00:49:00,
2013-01-01 18:54:00,17.2,13.5,30.21,WSW,253,5.0,5.0,85,0.00,,,0.00,VWS V14.01,2013-01-02 00:54:00,
2013-01-01 18:59:00,17.0,13.0,30.21,WSW,254,5.0,6.0,84,0.00,,,0.00,VWS V14.01,2013-01-02 00:59:00,
2013-01-01 19:00:00,15.1,11.9,30.24,WSW,251,1.0,6.0,87,0.00,,,0.00,VWS V14.01,2013-01-02 01:00:00,
2013-01-01 19:04:00,16.9,13.2,30.22,WSW,248,5.0,6.0,85,0.00,,,0.00,VWS V14.01,2013-01-02 01:04:00,
2013-01-01 19:09:00,16.5,13.1,30.22,WSW,246,5.0,6.0,86,0.00,,,0.00,VWS V14.01,2013-01-02 01:09:00,
2013-01-01 19:14:00,16.2,12.8,30.22,WSW,240,5.0,6.0,86,0.00,,,0.00,VWS V14.01,2013-01-02 01:14:00,
2013-01-01 19:15:00,14.6,11.7,30.23,WSW,243,4.0,5.0,88,0.00,,,0.00,VWS V14.01,2013-01-02 01:15:00,
2013-01-01 19:19:00,16.4,12.4,30.24,WSW,247,4.0,6.0,84,0.00,,,0.00,VWS V14.01,2013-01-02 01:19:00,
2013-01-01 19:24:00,16.4,12.7,30.24,WSW,253,5.0,6.0,85,0.00,,,0.00,VWS V14.01,2013-01-02 01:24:00,
2013-01-01 19:29:00,16.4,12.7,30.24,WSW,253,3.0,6.0,85,0.00,,,0.00,VWS V14.01,2013-01-02 01:29:00,
2013-01-01 19:30:00,15.1,12.2,30.22,WSW,247,2.0,6.0,88,0.00,,,0.00,VWS V14.01,2013-01-02 01:30:00,
2013-01-01 19:34:00,16.2,12.2,30.23,WSW,253,3.0,5.0,84,0.00,,,0.00,VWS V14.01,2013-01-02 01:34:00,
2013-01-01 19:39:00,16.2,12.2,30.23,WSW,251,4.0,6.0,84,0.00,,,0.00,VWS V14.01,2013-01-02 01:39:00,
2013-01-01 19:44:00,15.9,12.2,30.23,WSW,256,5.0,6.0,85,0.00,,,0.00,VWS V14.01,2013-01-02 01:44:00,
2013-01-01 19:45:00,14.4,11.0,30.22,WSW,239,4.0,7.0,86,0.00,,,0.00,VWS V14.01,2013-01-02 01:45:00,
2013-01-01 19:49:00,15.6,12.7,30.24,WSW,250,5.0,6.0,88,0.00,,,0.00,VWS V14.01,2013-01-02 01:49:00,
2013-01-01 19:54:00,15.4,12.2,30.24,WSW,250,5.0,6.0,87,0.00,,,0.00,VWS V14.01,2013-01-02 01:54:00,
2013-01-01 19:59:00,15.2,12.0,30.24,WSW,251,2.0,6.0,87,0.00,,,0.00,VWS V14.01,2013-01-02 01:59:00,
2013-01-01 20:00:00,14.6,11.2,30.21,WSW,250,5.0,6.0,86,0.00,,,0.00,VWS V14.01,2013-01-02 02:00:00,
2013-01-01 20:04:00,15.1,12.4,30.24,WSW,251,2.0,2.0,89,0.00,,,0.00,VWS V14.01,2013-01-02 02:04:00,
2013-01-01 20:09:00,14.9,11.7,30.24,WSW,244,2.0,5.0,87,0.00,,,0.00,VWS V14.01,2013-01-02 02:09:00,
2013-01-01 20:14:00,14.8,11.9,30.24,WSW,243,3.0,5.0,88,0.00,,,0.00,VWS V14.01,2013-01-02 02:14:00,
2013-01-01 20:15:00,14.4,11.0,30.20,WSW,247,6.0,7.0,86,0.00,,,0.00,VWS V14.01,2013-01-02 02:15:00,
2013-01-01 20:19:00,14.8,11.9,30.23,WSW,243,4.0,5.0,88,0.00,,,0.00,VWS V14.01,2013-01-02 02:19:00,
2013-01-01 20:24:00,14.8,11.9,30.23,WSW,244,3.0,5.0,88,0.00,,,0.00,VWS V14.01,2013-01-02 02:24:00,
2013-01-01 20:29:00,14.9,12.2,30.23,WSW,246,4.0,6.0,89,0.00,,,0.00,VWS V14.01,2013-01-02 02:29:00,
2013-01-01 20:30:00,14.3,10.6,30.20,WSW,251,2.0,7.0,85,0.00,,,0.00,VWS V14.01,2013-01-02 02:30:00,
2013-01-01 20:34:00,15.1,11.7,30.22,WSW,248,5.0,5.0,86,0.00,,,0.00,VWS V14.01,2013-01-02 02:34:00,
2013-01-01 20:39:00,14.9,12.0,30.22,WSW,241,6.0,6.0,88,0.00,,,0.00,VWS V14.01,2013-01-02 02:39:00,
2013-01-01 20:44:00,14.6,10.9,30.22,WSW,237,4.0,7.0,85,0.00,,,0.00,VWS V14.01,2013-01-02 02:44:00,
2013-01-01 20:45:00,13.5,9.6,30.20,WSW,251,5.0,6.0,84,0.00,,,0.00,VWS V14.01,2013-01-02 02:45:00,
2013-01-01 20:49:00,14.3,11.1,30.22,WSW,250,4.0,6.0,87,0.00,,,0.00,VWS V14.01,2013-01-02 02:49:00,
2013-01-01 20:54:00,14.4,11.2,30.22,WSW,248,3.0,6.0,87,0.00,,,0.00,VWS V14.01,2013-01-02 02:54:00,
2013-01-01 20:59:00,14.6,11.4,30.22,WSW,250,5.0,6.0,87,0.00,,,0.00,VWS V14.01,2013-01-02 02:59:00,
2013-01-01 21:00:00,14.4,10.5,30.19,WSW,247,3.0,6.0,84,0.00,,,0.00,VWS V14.01,2013-01-02 03:00:00,
2013-01-01 21:04:00,14.8,11.1,30.21,WSW,251,4.0,6.0,85,0.00,,,0.00,VWS V14.01,2013-01-02 03:04:00,
2013-01-01 21:09:00,14.6,10.7,30.21,WSW,248,5.0,7.0,84,0.00,,,0.00,VWS V14.01,2013-01-02 03:09:00,
2013-01-01 21:14:00,14.4,10.5,30.21,WSW,248,3.0,7.0,84,0.00,,,0.00,VWS V14.01,2013-01-02 03:14:00,
2013-01-01 21:15:00,13.8,9.9,30.18,WSW,250,3.0,6.0,84,0.00,,,0.00,VWS V14.01,2013-01-02 03:15:00,
2013-01-01 21:19:00,14.6,10.7,30.20,WSW,250,5.0,7.0,84,0.00,,,0.00,VWS V14.01,2013-01-02 03:19:00,
2013-01-01 21:24:00,14.4,10.5,30.20,WSW,251,5.0,7.0,84,0.00,,,0.00,VWS V14.01,2013-01-02 03:24:00,
2013-01-01 21:29:00,14.3,10.4,30.20,WSW,250,2.0,7.0,84,0.00,,,0.00,VWS V14.01,2013-01-02 03:29:00,
2013-01-01 21:30:00,13.8,9.3,30.18,WSW,250,2.0,7.0,82,0.00,,,0.00,VWS V14.01,2013-01-02 03:30:00,
2013-01-01 21:34:00,14.1,10.4,30.20,WSW,251,4.0,6.0,85,0.00,,,0.00,VWS V14.01,2013-01-02 03:34:00,
2013-01-01 21:39:00,14.0,10.1,30.20,WSW,251,5.0,6.0,84,0.00,,,0.00,VWS V14.01,2013-01-02 03:39:00,
2013-01-01 21:44:00,13.6,10.2,30.20,WSW,251,3.0,6.0,86,0.00,,,0.00,VWS V14.01,2013-01-02 03:44:00,
2013-01-01 21:45:00,15.2,10.4,30.17,WSW,248,6.0,8.0,81,0.00,,,0.00,VWS V14.01,2013-01-02 03:45:00,
2013-01-01 21:49:00,13.5,10.1,30.20,WSW,251,3.0,5.0,86,0.00,,,0.00,VWS V14.01,2013-01-02 03:49:00,
2013-01-01 21:54:00,13.8,10.1,30.20,WSW,253,5.0,5.0,85,0.00,,,0.00,VWS V14.01,2013-01-02 03:54:00,
2013-01-01 21:59:00,14.3,10.4,30.20,WSW,250,3.0,6.0,84,0.00,,,0.00,VWS V14.01,2013-01-02 03:59:00,
2013-01-01 22:00:00,15.7,10.6,30.17,WSW,246,6.0,8.0,80,0.00,,,0.00,VWS V14.01,2013-01-02 04:00:00,
2013-01-01 22:04:00,14.4,10.2,30.19,WSW,248,3.0,5.0,83,0.00,,,0.00,VWS V14.01,2013-01-02 04:04:00,
2013-01-01 22:09:00,14.3,10.1,30.19,WSW,250,4.0,5.0,83,0.00,,,0.00,VWS V14.01,2013-01-02 04:09:00,
2013-01-01 22:14:00,14.0,9.8,30.19,WSW,250,5.0,6.0,83,0.00,,,0.00,VWS V14.01,2013-01-02 04:14:00,
2013-01-01 22:15:00,15.1,10.1,30.16,WSW,246,5.0,8.0,80,0.00,,,0.00,VWS V14.01,2013-01-02 04:15:00,
2013-01-01 22:19:00,13.6,9.9,30.18,WSW,250,5.0,6.0,85,0.00,,,0.00,VWS V14.01,2013-01-02 04:19:00,
2013-01-01 22:24:00,13.8,9.3,30.18,WSW,251,5.0,6.0,82,0.00,,,0.00,VWS V14.01,2013-01-02 04:24:00,
2013-01-01 22:29:00,13.8,9.3,30.18,WSW,251,3.0,7.0,82,0.00,,,0.00,VWS V14.01,2013-01-02 04:29:00,
2013-01-01 22:30:00,14.8,9.8,30.16,WSW,240,5.0,7.0,80,0.00,,,0.00,VWS V14.01,2013-01-02 04:30:00,
2013-01-01 22:34:00,14.0,9.8,30.18,WSW,253,7.0,7.0,83,0.00,,,0.00,VWS V14.01,2013-01-02 04:34:00,
2013-01-01 22:39:00,14.4,10.5,30.18,WSW,251,6.0,8.0,84,0.00,,,0.00,VWS V14.01,2013-01-02 04:39:00,
2013-01-01 22:44:00,14.9,10.1,30.18,WSW,256,6.0,8.0,81,0.00,,,0.00,VWS V14.01,2013-01-02 04:44:00,
2013-01-01 22:45:00,15.7,10.6,30.17,WSW,246,7.0,10.0,80,0.00,,,0.00,VWS V14.01,2013-01-02 04:45:00,
2013-01-01 22:49:00,15.4,10.6,30.17,WSW,248,7.0,7.0,81,0.00,,,0.00,VWS V14.01,2013-01-02 04:49:00,
2013-01-01 22:54:00,15.6,10.3,30.17,WSW,256,3.0,8.0,79,0.00,,,0.00,VWS V14.01,2013-01-02 04:54:00,
2013-01-01 22:59:00,15.7,10.9,30.17,WSW,247,5.0,8.0,81,0.00,,,0.00,VWS V14.01,2013-01-02 04:59:00,
2013-01-01 23:00:00,15.7,10.6,30.17,WSW,250,6.0,8.0,80,0.00,,,0.00,VWS V14.01,2013-01-02 05:00:00,
2013-01-01 23:01:00,15.7,10.6,30.17,WSW,257,6.0,8.0,80,0.00,,,0.00,VWS V14.01,2013-01-02 05:01:00,
2013-01-01 23:02:00,15.6,10.5,30.17,WSW,247,5.0,7.0,80,0.00,,,0.00,VWS V14.01,2013-01-02 05:02:00,
2013-01-01 23:07:00,15.2,10.4,30.17,WSW,254,5.0,8.0,81,0.00,,,0.00,VWS V14.01,2013-01-02 05:07:00,
2013-01-01 23:12:00,15.1,9.8,30.17,WSW,250,6.0,8.0,79,0.00,,,0.00,VWS V14.01,2013-01-02 05:12:00,
2013-01-01 23:15:00,14.6,9.8,30.16,WSW,248,5.0,7.0,81,0.00,,,0.00,VWS V14.01,2013-01-02 05:15:00,
2013-01-01 23:17:00,15.1,10.1,30.16,WSW,246,5.0,7.0,80,0.00,,,0.00,VWS V14.01,2013-01-02 05:17:00,
2013-01-01 23:22:00,14.8,10.3,30.16,WSW,251,5.0,7.0,82,0.00,,,0.00,VWS V14.01,2013-01-02 05:22:00,
2013-01-01 23:27:00,14.8,10.0,30.16,WSW,247,5.0,7.0,81,0.00,,,0.00,VWS V14.01,2013-01-02 05:27:00,
2013-01-01 23:30:00,14.3,9.8,30.15,WSW,248,2.0,7.0,82,0.00,,,0.00,VWS V14.01,2013-01-02 05:30:00,
2013-01-01 23:32:00,14.8,10.3,30.16,WSW,246,6.0,7.0,82,0.00,,,0.00,VWS V14.01,2013-01-02 05:32:00,
2013-01-01 23:37:00,15.2,10.7,30.16,WSW,248,7.0,8.0,82,0.00,,,0.00,VWS V14.01,2013-01-02 05:37:00,
2013-01-01 23:42:00,15.4,10.4,30.16,WSW,240,7.0,8.0,80,0.00,,,0.00,VWS V14.01,2013-01-02 05:42:00,
2013-01-01 23:45:00,13.6,9.7,30.15,WSW,251,5.0,8.0,84,0.00,,,0.00,VWS V14.01,2013-01-02 05:45:00,
2013-01-01 23:47:00,15.7,10.9,30.17,WSW,247,7.0,8.0,81,0.00,,,0.00,VWS V14.01,2013-01-02 05:47:00,
2013-01-01 23:52:00,15.9,10.6,30.17,WSW,241,7.0,10.0,79,0.00,,,0.00,VWS V14.01,2013-01-02 05:52:00,
2013-01-01 23:57:00,15.6,10.5,30.17,WSW,241,7.0,10.0,80,0.00,,,0.00,VWS V14.01,2013-01-02 05:57:00,